| time (UTC) | temp F | wind direction | speed MPH | gust MPH | rain 1hr in | rain 24hr in | rain mn in | humidity % | barometer mb |
| 20260505162016 | 57 | 0 | 7.0 | 13.0 | 0.00 | 0.00 | 0.00 | 51 | 1011.3 |
| 20260505161016 | 57 | 0 | 9.0 | 15.0 | 0.00 | 0.00 | 0.00 | 51 | 1011.1 |
| 20260505153016 | 56 | 0 | 8.0 | 13.0 | 0.00 | 0.00 | 0.00 | 51 | 1011.2 |
| 20260505152016 | 55 | 0 | 6.0 | 16.0 | 0.00 | 0.00 | 0.00 | 52 | 1011.1 |
| 20260505151016 | 55 | 0 | 8.0 | 13.0 | 0.00 | 0.00 | 0.00 | 52 | 1011.1 |
| 20260505140136 | 53 | 0 | 11.0 | 18.0 | 0.00 | 0.00 | 0.00 | 54 | 1011.1 |
| 20260505125015 | 53 | 0 | 4.0 | 12.0 | 0.00 | 0.00 | 0.00 | 55 | 1010.7 |
| 20260505124015 | 53 | 0 | 5.0 | 12.0 | 0.00 | 0.00 | 0.00 | 55 | 1010.4 |
| 20260505123015 | 53 | 0 | 3.0 | 9.0 | 0.00 | 0.00 | 0.00 | 56 | 1010.6 |
| 20260505122015 | 53 | 0 | 6.0 | 16.0 | 0.00 | 0.00 | 0.00 | 56 | 1010.5 |
| 20260505120055 | 54 | 0 | 4.0 | 10.0 | 0.00 | 0.00 | 0.00 | 55 | 1009.9 |
| 20260505115015 | 55 | 0 | 6.0 | 14.0 | 0.00 | 0.00 | 0.00 | 55 | 1010.0 |
| 20260505114135 | 55 | 0 | 6.0 | 12.0 | 0.00 | 0.00 | 0.00 | 55 | 1010.0 |
| 20260505113055 | 56 | 0 | 6.0 | 12.0 | 0.00 | 0.00 | 0.00 | 55 | 1010.0 |
| 20260505112015 | 56 | 0 | 6.0 | 13.0 | 0.00 | 0.00 | 0.00 | 55 | 1009.8 |
| 20260505111015 | 57 | 0 | 6.0 | 11.0 | 0.00 | 0.00 | 0.00 | 54 | 1009.7 |
| 20260505102055 | 63 | 0 | 5.0 | 13.0 | 0.00 | 0.00 | 0.00 | 40 | 1009.8 |
| 20260505101015 | 62 | 0 | 4.0 | 14.0 | 0.00 | 0.00 | 0.00 | 40 | 1009.6 |
| 20260505100015 | 59 | 0 | 4.0 | 10.0 | 0.00 | 0.00 | 0.00 | 45 | 1009.3 |
| 20260505094015 | 58 | 0 | 1.0 | 3.0 | 0.00 | 0.00 | 0.00 | 47 | 1009.0 |
| 20260505092015 | 60 | 0.0 | 0.0 | 0.00 | 0.00 | 0.00 | 39 | 1009.0 | |
| 20260505091015 | 61 | 0 | 0.0 | 2.0 | 0.00 | 0.00 | 0.00 | 38 | 1008.8 |
| 20260505090135 | 62 | 0.0 | 3.0 | 0.00 | 0.00 | 0.00 | 36 | 1008.9 | |
| 20260505085055 | 61 | 0 | 1.0 | 3.0 | 0.00 | 0.00 | 0.00 | 36 | 1008.7 |
| 20260505084135 | 59 | 0 | 2.0 | 5.0 | 0.00 | 0.00 | 0.00 | 39 | 1008.5 |
| 20260505083015 | 55 | 0 | 4.0 | 11.0 | 0.00 | 0.00 | 0.00 | 49 | 1007.9 |
| 20260505082015 | 55 | 0.0 | 0.0 | 0.00 | 0.00 | 0.00 | 55 | 1007.6 | |
| 20260505081015 | 55 | 0.0 | 0.0 | 0.00 | 0.00 | 0.00 | 49 | 1007.6 | |
| 20260505080055 | 55 | 0.0 | 0.0 | 0.00 | 0.00 | 0.00 | 49 | 1007.7 | |
| 20260505075015 | 55 | 0.0 | 0.0 | 0.00 | 0.00 | 0.00 | 48 | 1007.5 | |
| 20260505074055 | 56 | 0.0 | 0.0 | 0.00 | 0.00 | 0.00 | 47 | 1007.3 | |
| 20260505073015 | 56 | 0.0 | 0.0 | 0.00 | 0.00 | 0.00 | 48 | 1007.4 | |
| 20260505072055 | 56 | 0.0 | 0.0 | 0.00 | 0.00 | 0.00 | 48 | 1007.7 | |
| 20260505070055 | 56 | 0.0 | 0.0 | 0.00 | 0.00 | 0.00 | 46 | 1007.3 | |
| 20260505065015 | 56 | 0 | 1.0 | 4.0 | 0.00 | 0.00 | 0.00 | 46 | 1007.1 |
| 20260505063055 | 57 | 0 | 0.0 | 2.0 | 0.00 | 0.00 | 0.00 | 44 | 1006.9 |
| 20260505062057 | 57 | 0 | 0.0 | 3.0 | 0.00 | 0.00 | 0.00 | 43 | 1006.9 |
| 20260505061017 | 57 | 0.0 | 0.0 | 0.00 | 0.00 | 0.00 | 41 | 1006.8 | |
| 20260505060016 | 58 | 0.0 | 0.0 | 0.00 | 0.00 | 0.00 | 39 | 1006.8 | |
| 20260505055056 | 58 | 0.0 | 0.0 | 0.00 | 0.00 | 0.00 | 40 | 1006.9 | |
| 20260505054016 | 59 | 0.0 | 0.0 | 0.00 | 0.00 | 0.00 | 34 | 1006.8 | |
| 20260505053016 | 60 | 0.0 | 1.0 | 0.00 | 0.00 | 0.00 | 36 | 1006.8 | |
| 20260505052056 | 60 | 0.0 | 0.0 | 0.00 | 0.00 | 0.00 | 35 | 1006.9 | |
| 20260505051056 | 61 | 0.0 | 0.0 | 0.00 | 0.00 | 0.00 | 33 | 1007.0 | |
| 20260505041016 | 70 | 0 | 1.0 | 3.0 | 0.00 | 0.00 | 0.00 | 20 | 1007.6 |
| 20260505040136 | 70 | 0 | 1.0 | 3.0 | 0.00 | 0.00 | 0.00 | 20 | 1007.2 |
| 20260505035016 | 70 | 0 | 1.0 | 3.0 | 0.00 | 0.00 | 0.00 | 20 | 1007.1 |
| 20260505034016 | 70 | 0 | 1.0 | 3.0 | 0.00 | 0.00 | 0.00 | 20 | 1007.1 |
| 20260505033056 | 70 | 0 | 0.0 | 2.0 | 0.00 | 0.00 | 0.00 | 19 | 1006.9 |
| 20260505031015 | 72 | 0 | 0.0 | 1.0 | 0.00 | 0.00 | 0.00 | 18 | 1006.7 |
| 20260505030015 | 73 | 0 | 1.0 | 2.0 | 0.00 | 0.00 | 0.00 | 17 | 1006.6 |
| 20260505025015 | 73 | 0 | 2.0 | 6.0 | 0.00 | 0.00 | 0.00 | 16 | 1006.4 |
| 20260505024015 | 73 | 0 | 1.0 | 5.0 | 0.00 | 0.00 | 0.00 | 16 | 1006.2 |
| 20260505023015 | 74 | 0 | 1.0 | 5.0 | 0.00 | 0.00 | 0.00 | 16 | 1006.2 |
| 20260505022015 | 74 | 0 | 1.0 | 5.0 | 0.00 | 0.00 | 0.00 | 15 | 1005.7 |
| 20260505021015 | 75 | 0 | 2.0 | 8.0 | 0.00 | 0.00 | 0.00 | 15 | 1005.7 |
| 20260505020056 | 76 | 0 | 3.0 | 11.0 | 0.00 | 0.00 | 0.00 | 15 | 1005.6 |
| 20260505015015 | 76 | 0 | 5.0 | 14.0 | 0.00 | 0.00 | 0.00 | 16 | 1005.3 |
| 20260505014055 | 76 | 0 | 5.0 | 12.0 | 0.00 | 0.00 | 0.00 | 16 | 1005.1 |
| 20260505012055 | 77 | 0 | 5.0 | 14.0 | 0.00 | 0.00 | 0.00 | 16 | 1004.7 |
| 20260505011015 | 77 | 0 | 6.0 | 18.0 | 0.00 | 0.00 | 0.00 | 15 | 1004.7 |
| 20260505010135 | 78 | 0 | 6.0 | 16.0 | 0.00 | 0.00 | 0.00 | 14 | 1004.6 |
| 20260505005055 | 78 | 0 | 7.0 | 16.0 | 0.00 | 0.00 | 0.00 | 14 | 1004.5 |
| 20260505004055 | 78 | 0 | 10.0 | 21.0 | 0.00 | 0.00 | 0.00 | 14 | 1004.8 |
| 20260505003135 | 79 | 0 | 9.0 | 18.0 | 0.00 | 0.00 | 0.00 | 14 | 1004.9 |
| 20260505002135 | 79 | 0 | 10.0 | 18.0 | 0.00 | 0.00 | 0.00 | 13 | 1004.9 |
| 20260505001015 | 79 | 0 | 7.0 | 22.0 | 0.00 | 0.00 | 0.00 | 13 | 1005.0 |
| 20260505000055 | 79 | 0 | 12.0 | 21.0 | 0.00 | 0.00 | 0.00 | 13 | 1005.3 |
| 20260504235055 | 79 | 0 | 9.0 | 19.0 | 0.00 | 0.00 | 0.00 | 12 | 1005.4 |
| 20260504234135 | 79 | 0 | 11.0 | 24.0 | 0.00 | 0.00 | 0.00 | 12 | 1005.4 |
| 20260504233015 | 80 | 0 | 10.0 | 21.0 | 0.00 | 0.00 | 0.00 | 12 | 1005.8 |
| 20260504232015 | 80 | 0 | 13.0 | 23.0 | 0.00 | 0.00 | 0.00 | 11 | 1005.9 |
| 20260504231015 | 80 | 0 | 10.0 | 21.0 | 0.00 | 0.00 | 0.00 | 11 | 1006.0 |
| 20260504225055 | 80 | 0 | 11.0 | 27.0 | 0.00 | 0.00 | 0.00 | 11 | 1006.2 |
| 20260504224015 | 80 | 0 | 10.0 | 18.0 | 0.00 | 0.00 | 0.00 | 12 | 1006.1 |
| 20260504223055 | 80 | 0 | 9.0 | 17.0 | 0.00 | 0.00 | 0.00 | 12 | 1006.0 |
| 20260504222015 | 80 | 0 | 9.0 | 18.0 | 0.00 | 0.00 | 0.00 | 12 | 1006.2 |
| 20260504221015 | 81 | 0 | 11.0 | 20.0 | 0.00 | 0.00 | 0.00 | 11 | 1006.6 |
| 20260504220015 | 81 | 0 | 12.0 | 22.0 | 0.00 | 0.00 | 0.00 | 11 | 1006.9 |
| 20260504215055 | 81 | 0 | 11.0 | 24.0 | 0.00 | 0.00 | 0.00 | 11 | 1007.0 |
| 20260504214015 | 81 | 0 | 11.0 | 20.0 | 0.00 | 0.00 | 0.00 | 12 | 1007.1 |
| 20260504213015 | 81 | 0 | 9.0 | 20.0 | 0.00 | 0.00 | 0.00 | 14 | 1007.4 |
| 20260504212055 | 80 | 0 | 7.0 | 21.0 | 0.00 | 0.00 | 0.00 | 15 | 1007.6 |
| 20260504211015 | 80 | 0 | 7.0 | 17.0 | 0.00 | 0.00 | 0.00 | 16 | 1007.8 |
| 20260504205015 | 80 | 0 | 9.0 | 19.0 | 0.00 | 0.00 | 0.00 | 17 | 1008.1 |
| 20260504204137 | 81 | 0 | 9.0 | 20.0 | 0.00 | 0.00 | 0.00 | 18 | 1008.4 |
| 20260504202137 | 80 | 0 | 7.0 | 16.0 | 0.00 | 0.00 | 0.00 | 18 | 1008.6 |
| 20260504201016 | 81 | 0 | 7.0 | 14.0 | 0.00 | 0.00 | 0.00 | 18 | 1008.7 |
| 20260504200057 | 82 | 0 | 6.0 | 16.0 | 0.00 | 0.00 | 0.00 | 19 | 1009.1 |
| 20260504195016 | 82 | 0 | 8.0 | 18.0 | 0.00 | 0.00 | 0.00 | 21 | 1009.4 |
| 20260504193055 | 81 | 0 | 7.0 | 33.0 | 0.00 | 0.00 | 0.00 | 22 | 1008.7 |
| 20260504191136 | 79 | 0 | 4.0 | 11.0 | 0.00 | 0.00 | 0.00 | 27 | 1008.7 |
| 20260504190016 | 79 | 0 | 5.0 | 10.0 | 0.00 | 0.00 | 0.00 | 28 | 1008.9 |
| 20260504185137 | 79 | 0 | 4.0 | 8.0 | 0.00 | 0.00 | 0.00 | 28 | 1009.5 |
| 20260504184016 | 78 | 0 | 2.0 | 6.0 | 0.00 | 0.00 | 0.00 | 28 | 1009.8 |
| 20260504183016 | 77 | 0 | 2.0 | 11.0 | 0.00 | 0.00 | 0.00 | 29 | 1010.3 |
| 20260504182056 | 77 | 0 | 2.0 | 8.0 | 0.00 | 0.00 | 0.00 | 29 | 1010.4 |
| 20260504181016 | 78 | 0 | 3.0 | 11.0 | 0.00 | 0.00 | 0.00 | 29 | 1010.6 |
| 20260504180016 | 77 | 0 | 3.0 | 13.0 | 0.00 | 0.00 | 0.00 | 29 | 1010.4 |
| 20260504175016 | 77 | 0 | 3.0 | 11.0 | 0.00 | 0.00 | 0.00 | 30 | 1010.8 |
| 20260504172136 | 75 | 0 | 4.0 | 10.0 | 0.00 | 0.00 | 0.00 | 33 | 1011.3 |